User: anonymous   Login
Location: Prairie State College
(41.5244°N, 87.6382°W)
Time: 08:31:11
(UTC-05:00)
Language:

Cosmos 1943 - Orbit

View from above orbital plane
View from above orbital plane
View from above satellite
View from above satellite

Ground track
Ground track

The orbit data is extracted from the following two-line orbital elements,

1 19119U 88039A   17227.84240036 -.00000149 +00000-0 -52265-4 0  9995
2 19119 071.0057 336.5056 0013141 318.6795 178.1867 14.15099043510268
Epoch (UTC): 15 August 2017 20:13:03
Eccentricity: 0.0013141
inclination: 71.0057°
perigee height: 832 km
apogee height: 851 km
right ascension of ascending node: 336.5056°
argument of perigee: 318.6795°
revolutions per day: 14.15099043
mean anomaly at epoch: 178.1867°
orbit number at epoch: 51026

The dashed part of the orbit path shows where the satellite is in the earth's shadow,  

DLR